Weather History for Newark Heath, OH

Change the Weather History Date:

Tuesday, April 1, 2014

  Actual Average Record
Temperature  
Mean Temperature 55 °F -  
Max Temperature 73 °F 58 °F 80 °F (1959)
Min Temperature 37 °F 37 °F 14 °F (1964)
Degree Days  
Heating Degree Days 10    
Growing Degree Days 5 (Base 50)    
Moisture  
Dew Point 31 °F    
Average Humidity 43    
Maximum Humidity 79    
Minimum Humidity 16    
Precipitation  
Precipitation 0.01 in - - ()
Sea Level Pressure  
Sea Level Pressure 29.95 in    
Wind  
Wind Speed 9 mph (WSW)    
Max Wind Speed 31 mph    
Max Gust Speed 56 mph    
Visibility 10 miles    
Events Rain    
Averages and records for this station are not official NWS values.
T = Trace of Precipitation, MM = Missing Value Source: NWS Daily Summary

Daily Weather History Graph

Daily Weather History Graph

Search for Another Location

Airport:

Trip Planner

Search our weather history database for the weather conditions in past years. The results will help you decide how hot, cold, wet, or windy it might be!

Date:

Astronomy

Apr. 01, 2014 Rise Set
Actual Time 7:13 AM EDT 7:54 PM EDT
Civil Twilight 6:46 AM EDT 8:21 PM EDT
Nautical Twilight 6:14 AM EDT 8:53 PM EDT
Astronomical Twilight 5:41 AM EDT 9:27 PM EDT
Moon 8:15 AM EDT (4/1) 10:15 PM EDT (4/1)
Length of Visible Light 13h 35m
Length of Day
12h 40m
Waxing Crescent, 4% of the Moon is Illuminated
Apr 1
Waxing Crescent
Apr 7
First Quarter
Apr 15
Full
Apr 22
Last Quarter
Apr 29
New

Hourly Weather History & Observations

Time (EDT) Temp. Windchill Dew Point Humidity Pressure Visibility Wind Dir Wind Speed Gust Speed Precip Events Conditions
12:54 AM 37.0 °F 34.5 °F 30.9 °F 79% 30.03 in 10.0 mi West 3.5 mph - N/A   Clear
1:54 AM 39.0 °F - 30.9 °F 73% 30.03 in 10.0 mi Calm Calm - N/A   Clear
2:54 AM 41.0 °F - 32.0 °F 70% 30.01 in 10.0 mi Calm Calm - N/A   Clear
3:54 AM 42.1 °F - 34.0 °F 73% 30.00 in 10.0 mi Calm Calm - N/A   Clear
4:54 AM 42.1 °F 38.4 °F 34.0 °F 73% 30.01 in 10.0 mi WNW 5.8 mph - N/A   Mostly Cloudy
5:54 AM 43.0 °F 41.3 °F 35.1 °F 74% 29.99 in 10.0 mi East 3.5 mph - N/A   Overcast
6:54 AM 43.0 °F 38.8 °F 36.0 °F 76% 29.98 in 10.0 mi ENE 6.9 mph - 0.01 in Rain Light Rain
7:54 AM 45.0 °F - 36.0 °F 71% 29.96 in 10.0 mi Calm Calm - 0.00 in   Overcast
8:54 AM 50.0 °F - 33.1 °F 52% 29.94 in 10.0 mi SSE 4.6 mph - N/A   Overcast
9:54 AM 55.9 °F - 35.1 °F 45% 29.93 in 10.0 mi South 8.1 mph - N/A   Partly Cloudy
10:54 AM 62.1 °F - 36.0 °F 38% 29.92 in 10.0 mi North - - N/A   Clear
11:54 AM 68.0 °F - 39.0 °F 35% 29.90 in 10.0 mi SW 19.6 mph 29.9 mph N/A   Clear
12:54 PM 71.1 °F - 37.9 °F 30% 29.88 in 10.0 mi SW 23.0 mph 32.2 mph N/A   Clear
1:54 PM 72.0 °F - 33.1 °F 24% 29.87 in 10.0 mi SW 31.1 mph 40.3 mph N/A   Clear
2:54 PM 73.9 °F - 33.1 °F 22% 29.86 in 10.0 mi SW 28.8 mph 41.4 mph N/A   Clear
3:54 PM 73.9 °F - 30.0 °F 20% 29.87 in 10.0 mi WSW 28.8 mph 56.4 mph N/A   Clear
4:54 PM 73.9 °F - 26.1 °F 17% 29.88 in 10.0 mi WSW 25.3 mph 43.7 mph N/A   Clear
5:54 PM 73.0 °F - 27.0 °F 18% 29.88 in 10.0 mi WSW 20.7 mph 33.4 mph N/A   Clear
6:54 PM 70.0 °F - 21.9 °F 16% 29.92 in 10.0 mi WSW 20.7 mph 26.5 mph N/A   Clear
7:54 PM 66.0 °F - 21.0 °F 18% 29.94 in 10.0 mi WSW 15.0 mph 24.2 mph N/A   Clear
8:54 PM 61.0 °F - 21.9 °F 22% 29.96 in 10.0 mi West 10.4 mph - N/A   Clear
9:54 PM 62.1 °F - 23.0 °F 22% 29.99 in 10.0 mi West 11.5 mph - N/A   Clear
10:54 PM 60.1 °F - 26.1 °F 27% 30.01 in 10.0 mi West 12.7 mph - N/A   Clear
11:54 PM 57.9 °F - 28.9 °F 33% 30.04 in 10.0 mi West 13.8 mph - N/A   Mostly Cloudy